Location: Cudham
(51.3000°N, 0.0667°E)
Time: 22:37:17
(UTC+00:00)

Cosmos 1821 Rocket - Pass Details

Date: 19 May 2025
Orbit: 943 x 1004 km, 82.9° (Epoch: 12 June)

Event Time Altitude Azimuth Distance (km) Brightness Sun altitude
Rises 22:12:09 0° 348° (NNW) 3,643 8.6 -15.2°
Reaches altitude 10° 22:14:41 10° 346° (NNW) 2,687 7.6 -15.3°
Maximum altitude 22:20:45 68° 265° (W) 1,018 4.1 -15.7°
Enters shadow 22:25:07 19° 187° (S) 2,059 5.2 -16.0°
